User: anonymous   Login
Location: ??
(31.9467°N, 34.8903°E)
Time: 12:52:56
(UTC+00:00)
Language:

H-2A R/B - Orbit

View from above orbital plane
View from above orbital plane
View from above satellite
View from above satellite

Ground track
Ground track

The orbit data is extracted from the following two-line orbital elements,

1 27601U 02056E   21019.07989801 -.00000100  00000-0 -21276-4 0  9999
2 27601  98.2045  49.4965 0071976 356.1636  25.1046 14.31994035945547
Epoch (UTC): 19 January 2021 01:55:03
Eccentricity: 0.0071976
inclination: 98.2045°
perigee height: 733 km
apogee height: 836 km
right ascension of ascending node: 49.4965°
argument of perigee: 356.1636°
revolutions per day: 14.31994035
mean anomaly at epoch: 25.1046°
orbit number at epoch: 94554

The dashed part of the orbit path shows where the satellite is in the earth's shadow,  

DLR